Home > Weather > Regensburg > Past weeks

Flag for Germany Weather for the Past 2 Weeks in Regensburg, Bavaria, Germany

Now
46 °F

Clear.


Feels Like: 45 °F
Forecast: 45 / 63 °F
Wind: 3 mph from North

Location: Hohenfels

Current Time: May 1, 2016 at 6:54:12 AM

Latest Report: May 1, 2016 at 5:58 AM


Visibility: N/A

Pressure: 29.92 "Hg

Humidity: 62%

Dew Point: 34 °F

Location of RegensburgLocation

Historic Weather in Regensburg — Graph

°F

Regensburg Temperature Yesterday

Maximum temperature yesterday: 64 °F (at 2:58 PM)
Minimum temperature yesterday: 28 °F (at 5:58 AM)
Average temperature yesterday: 50 °F

High & Low Weather Summary for the Past Weeks

 TemperatureHumidityPressure
High66 °F (Apr 21, 5:58 PM)100% (Apr 16, 4:58 AM)30.42 "Hg (Apr 16, 4:58 AM)
Low28 °F (Apr 28, 2:58 AM)26% (Apr 30, 4:58 PM)29.57 "Hg (Apr 26, 6:00 AM)
Average44 °F76%29.98 "Hg
* Reported Apr 16 4:58 AM — May 1 4:58 AM, Regensburg, Weather by CustomWeather, © 2016

Note: Actual official high and low records may vary slightly from our data, if they occured in-between our weather recording intervals... More about our weather records

Advertising

Regensburg Weather History for the Previous 24 Hours

Scroll right to see more
 ConditionsComfort  
Time TempWeatherWind HumidityBarometerVisibility
4:58 AM
Sun, May 1
46 °FClear.2 mph62%29.92 "HgN/A
3:58 AM45 °FClear.2 mph71%29.91 "HgN/A
2:58 AM46 °FClear.2 mph62%29.91 "HgN/A
1:58 AM50 °FClear.2 mph50%29.90 "HgN/A
12:58 AM50 °FClear.2 mph50%29.91 "HgN/A
11:58 PM
Sat, Apr 30
52 °FClear.3 mph50%29.91 "HgN/A
10:58 PM54 °FClear.3 mph47%29.91 "HgN/A
9:58 PM57 °FClear.6 mph41%29.91 "HgN/A
8:58 PM59 °FSunny.7 mph39%29.91 "HgN/A
7:58 PM61 °FPassing clouds.7 mph34%29.93 "HgN/A
6:58 PM64 °FSunny.7 mph30%29.94 "HgN/A
5:58 PM64 °FScattered clouds.10 mph30%29.96 "HgN/A
4:58 PM64 °FSunny.1 mph26%29.96 "HgN/A
3:58 PM64 °FSunny.8 mph30%29.97 "HgN/A
2:58 PM64 °FSunny.2 mph30%29.99 "HgN/A
1:58 PM63 °FSunny.3 mph32%30.00 "HgN/A
12:58 PM61 °FSunny.5 mph36%30.02 "HgN/A
11:58 AM61 °FSunny.7 mph39%30.04 "HgN/A
10:58 AM57 °FSunny.3 mph48%30.05 "HgN/A
9:58 AM52 °FSunny.5 mph54%30.08 "HgN/A
8:58 AM46 °FSunny.6 mph66%30.08 "HgN/A
7:58 AM37 °FSunny.No wind81%30.09 "HgN/A
6:58 AM32 °FSunny.No wind100%30.09 "HgN/A
Weather by CustomWeather, © 2016

See weather overviewHow to use our weather pages